Regional Weather Roundup
Issued by NWS

Home | Current Version | Previous Version | Graphics & Text | Print | Product List | Glossary On
Versions: 1 2 3 4 5 6 7 8 9 10 11 12 13 14 15 16 17 18 19 20 21 22 23 24 25 26 27 28 29 30 31 32 33 34 35 36 37 38 39 40 41 42 43 44 45 46 47 48 49 50
000
ASUS43 KIND 252009
RWRIN

WEATHER ROUNDUP FOR INDIANA
NATIONAL WEATHER SERVICE INDIANAPOLIS IN
300 PM EST SUN JAN 25 2015

NOTE: "FAIR" INDICATES FEW OR NO CLOUDS BELOW 12,000 FEET WITH NO
SIGNIFICANT WEATHER AND/OR OBSTRUCTIONS TO VISIBILITY.

* - STATION DOES NOT REPORT WEATHER SUCH AS PRECIPITATION OR FOG.

+ - STATION NOT QUALITY CONTROLLED BY THE NATIONAL WEATHER SERVICE.
    USE DATA WITH CAUTION...ESPECIALLY DEWPOINT AND RELATIVE
    HUMIDITY OBSERVATIONS.

INZ001>003-010>013-019-020-252100-
NORTHWEST INDIANA

CITY           SKY/WX    TMP DP  RH WIND       PRES   REMARKS
GARY /AIRPORT/ LGT SNOW  30  27  86 NE17G30   29.80R WCI  18
KNOX *+        CLOUDY    31  25  78 NE12      29.75R WCI  22
LA PORTE +     LGT SNOW  31  29  94 NE13G18   29.78R WCI  21
MICHIGAN CITY+ LGT SNOW  30  27  86 NE12G17   29.80R WCI  21
MONTICELLO +   LGT SNOW  31  30  96 E17G23    29.70R WCI  20
RENSSELAER +   LGT SNOW  32  32 100 NE14      29.72R WCI  22
VALPARAISO     LGT SNOW  29  27  92 NE14G23   29.77R VSB 1   WCI  18

$$

LMZ046-743>745-252100-
SOUTHERN LAKE MICHIGAN

STATION/POSITION TIME  TEMP WIND        PRES
                       AIR  DIR/SP/G
                 (UTC) (F)  (DEG/KT/KT) (MB)
MICHIGAN CITY    2000   27   20/ 21/ 24   N/A

$$

INZ004-005-014>016-021>024-252100-
NORTH CENTRAL INDIANA

CITY           SKY/WX    TMP DP  RH WIND       PRES   REMARKS
GOSHEN         LGT SNOW  27  23  85 E18       29.78S VSB 1   WCI  14
LOGANSPORT +   LGT SNOW  30  30 100 NE13G21   29.71S VSB 1   WCI  20
PERU/GRISSOM   LGT SNOW  29  27  92 E16G25    29.69S FOG     WCI  17
ROCHESTER +    LGT SNOW  32  30  93 E14       29.74R VSB 3/4 WCI  22
SOUTH BEND     LGT SNOW  29  24  82 NE12G20   29.79R WCI  19
WARSAW +       LGT SNOW  28  25  86 E17G26    29.76R WCI  16

$$

INZ006>009-017-018-025>027-252100-
NORTHEAST INDIANA

CITY           SKY/WX    TMP DP  RH WIND       PRES   REMARKS
ANGOLA *+      CLOUDY    23  19  86 E13       29.78S WCI  11
AUBURN +       LGT SNOW  27  23  86 NE22G30   29.79R VSB 3/4 WCI  12
FORT WAYNE     LGT SNOW  26  23  88 NE21G32   29.76R FOG     WCI  12
HUNTINGTON +   LGT SNOW  27  22  82 NE17      29.73S VSB 3/4 WCI  14

$$

INZ028-029-035-036-043>045-051>053-252100-
WEST CENTRAL INDIANA

CITY           SKY/WX    TMP DP  RH WIND       PRES   REMARKS
GREENCASTLE +  CLOUDY    37  32  81 E6        29.61S
LAFAYETTE      LGT SNOW  33  31  92 NE16      29.66S VSB 1   WCI  23
TERRE HAUTE    CLOUDY    39  37  92 E5        29.60F FOG

$$

INZ030>032-037>040-046>048-054>057-064-065-252100-
CENTRAL INDIANA

CITY           SKY/WX    TMP DP  RH WIND       PRES   REMARKS
CP ATTERBURY + DRIZZLE   37  34  87 SE8       29.62F
INDIANAPOLIS   LGT RAIN  37  34  89 E8        29.61F
-EAGLE CREEK   LGT RAIN  36  34  92 E9        29.62F FOG
KOKOMO *+      CLOUDY    28  27  93 E21G28    29.69S WCI  15
MARION +       LGT SNOW  29  29 100 E15G23    29.70R WCI  18
MT COMFORT *+  CLOUDY    34 N/A N/A NE8       29.64S WCI  27
SHELBYVILLE    CLOUDY    38  34  85 E8        29.62F
ZIONSVILLE +   LGT SNOW  33  31  91 NE8       29.64S VSB 1   WCI  26

$$

INZ033-034-041-042-049-050-058-059-252100-
EAST CENTRAL INDIANA

CITY           SKY/WX    TMP DP  RH WIND       PRES   REMARKS
MUNCIE         SNOW      33  32  96 E8        29.67F VSB 1/2 WCI  26

$$

INZ060-061-067>069-081>083-085>088-252100-
SOUTHWEST INDIANA

CITY           SKY/WX    TMP DP  RH WIND       PRES   REMARKS
EVANSVILLE     LGT RAIN  42  39  89 S5        29.60F FOG
HUNTINGBURG *+ CLOUDY    39  37  93 S6        29.61F
WASHINGTON +   RAIN      39  36  87 SE5       29.59F

$$

INZ062-063-066-070>080-084-089>092-252100-
SOUTH CENTRAL AND SOUTHEAST INDIANA

CITY           SKY/WX    TMP DP  RH WIND       PRES   REMARKS
BLOOMINGTON    CLOUDY    38  36  92 SE6       29.59F
SEYMOUR +      RAIN      39  39 100 SE7       29.61

$$



USA.gov is the U.S. government's official web portal to all federal, state and local government web resources and services.